Location: Montbazon
(47.2835°N, 0.6999°E)
Time: 15:40:13
(UTC+00:00)

Cosmos 2251 Rocket - Pass Details

Date: 08 November 2025
Orbit: 760 x 788 km, 74.0° (Epoch: 12 December)

Event Time Altitude Azimuth Distance (km) Brightness Sun altitude
Exits shadow 05:11:34 - 340° (NNW) 3,191 6.4 -17.1°
Reaches altitude 10° 05:13:45 10° 343° (NNW) 2,355 5.8 -16.7°
Maximum altitude 05:19:04 62° 64° (ENE) 888 4.0 -15.8°
Drops below altitude 10° 05:24:22 10° 146° (SE) 2,346 6.6 -14.9°
Sets 05:26:47 0° 149° (SSE) 3,270 7.4 -14.5°
